#timestamp,LO_Frequency,Hit,StdDev 
1595070015.7,286046999.9,N
1595070035.5,286047000.0,N
1595070055.4,286047000.3,N
1595070075.2,286047000.2,N
1595070095.0,286047001.0,N
1595070095.9,286047001.0,N
1595070115.8,286047001.1,N
1595070135.6,286046998.6,N
1595070155.4,286046998.9,N
1595070175.3,286046998.7,N
1595070195.1,286046998.3,N
1595070215.9,286046998.2,N
1595070235.7,286046998.1,N
1595070255.5,286047000.7,N
1595070275.4,286047000.0,N
1595070295.2,286047001.0,N
1595070315.1,286047000.7,N
1595070316.0,286047000.7,N
1595070335.8,286046998.2,N
1595070355.6,286047000.9,N
1595070375.5,286046998.5,N
1595070395.3,286047000.6,N
1595070415.1,286047000.8,N
1595070435.9,286046998.9,N
1595070455.7,286046998.1,N
1595070475.6,286047001.2,N
1595070495.4,286046998.4,N
1595070515.2,286047000.1,N
1595070535.1,286046999.8,N
1595070536.0,286046999.8,N
1595070555.8,286047002.8,N
1595070575.7,286047001.9,N
1595070595.5,286047002.1,N
1595070615.3,286047001.4,N
1595070635.2,286047003.9,N
1595070655.0,286047002.7,N
1595070655.9,286047002.7,N
1595070675.8,286047001.0,N
1595070695.6,286047000.3,N
1595070715.4,286047000.1,N
1595070735.3,286047001.4,N
1595070755.1,286047000.7,N
1595070775.8,286047001.1,N
1595070795.7,286047011.9,Y
1595070815.5,286047001.2,P
1595070835.4,286046998.6,P
1595070855.2,286046998.5,N
1595070875.0,286047001.1,N
1595070875.9,286047001.1,N
1595070895.8,286047000.1,N
1595070915.6,286047000.7,N
1595070935.5,286046998.8,N
1595070955.3,286046998.8,N
1595070975.1,286046998.6,N
1595070995.9,286046998.3,N
1595071015.7,286046998.4,N
1595071035.5,286047001.2,N
1595071055.4,286047000.8,N
1595071075.2,286046996.6,N
1595071095.1,286046996.7,N
1595071096.0,286046996.7,N
1595071115.8,286046996.6,N
1595071135.6,286046996.5,N
1595071155.5,286046997.3,N
1595071175.3,286046997.8,N
1595071195.2,286046997.7,N
1595071215.9,286046995.3,N
1595071235.7,286046998.0,N
1595071255.6,286046995.7,N
1595071275.4,286046995.7,N
1595071295.2,286046996.2,N
1595071315.1,286046995.6,N
1595071316.0,286046995.6,N
1595071335.8,286046996.3,N
1595071355.7,286046993.3,Y
1595071375.5,286046997.6,P
1595071395.3,286046997.8,P
1595071415.2,286046995.4,P
1595071435.0,286046997.6,N
1595071435.9,286046997.6,N
1595071455.8,286046995.0,Y
1595071475.6,286046998.3,P
1595071495.5,286046998.4,P
1595071515.3,286046999.3,N
1595071535.1,286046999.1,N
1595071555.9,286046998.3,N
1595071575.7,286046998.9,N
1595071595.6,286046999.6,N
1595071615.4,286046999.3,N
1595071635.2,286046998.8,N
1595071655.1,286047001.1,N
1595071656.0,286047001.1,N
1595071675.8,286046998.5,N
1595071695.6,286046999.3,N
1595071715.5,286046999.0,N
1595071735.3,286046999.3,N
1595071755.2,286046998.8,N
1595071775.9,286046998.5,N
1595071795.7,286047000.6,N
1595071815.6,286047001.0,N
1595071835.4,286046998.6,N
1595071855.3,286046998.3,N
1595071875.1,286046998.2,N
1595071876.0,286046998.2,N
1595071895.8,286046998.4,N
1595071915.7,286046998.1,N
1595071935.5,286046998.8,N
1595071955.4,286046999.0,N
1595071975.2,286047000.4,N
1595071995.0,286047001.0,N
1595071995.9,286047001.0,N
1595072015.8,286046999.9,N
1595072035.6,286047001.1,N
1595072055.4,286047000.8,N
1595072075.3,286047000.7,N
1595072095.9,286047001.1,N
1595072115.7,286047000.8,N
1595072135.6,286046999.4,N
1595072155.4,286046998.4,N
1595072175.3,286047000.8,N
1595072195.1,286047000.9,N
1595072196.0,286047000.9,N
1595072215.8,286046998.1,N
1595072235.7,286047000.5,N
1595072255.5,286047000.3,N
1595072275.3,286047000.6,N
1595072295.2,286047001.1,N
1595072315.0,286047000.0,N
1595072315.9,286047000.0,N
1595072335.8,286046998.2,N
1595072355.6,286047000.1,N
1595072375.4,286047003.6,Y
1595072395.3,286047001.4,P
1595072415.1,286047002.8,P
1595072435.9,286047002.6,N
1595072455.7,286047001.7,N
1595072475.5,286047002.7,N
1595072495.4,286047001.4,N
1595072515.2,286047000.7,N
1595072535.0,286047000.3,N
1595072535.9,286047000.3,N
1595072555.8,286047001.9,N
1595072575.6,286047001.4,N
1595072595.5,286047003.1,Y
1595072615.3,286047001.6,P
1595072635.1,286047001.6,P
1595072655.9,286047004.4,P
1595072675.7,286047001.3,N
1595072695.6,286047002.4,N
1595072715.4,286047002.6,N
1595072735.2,286047001.7,N
1595072755.1,286047001.4,N
1595072756.0,286047001.4,N
1595072775.8,286047002.5,N
1595072795.6,286047002.2,N
1595072815.5,286046999.8,N
1595072835.3,286047002.6,N
1595072855.2,286046999.7,N
1595072875.9,286047002.4,N
1595072895.7,286047002.6,N
1595072915.6,286047000.1,N
1595072935.4,286047000.1,N
1595072955.2,286047002.2,N
1595072975.1,286047002.8,N
1595072976.0,286047002.8,N
1595072995.8,286047002.4,N
1595073015.7,286047002.4,N
1595073035.5,286047002.4,N
1595073055.4,286047002.5,N
1595073075.2,286047002.1,N
1595073095.0,286047002.2,N
1595073095.9,286047002.2,N
1595073115.8,286047002.4,N
1595073135.6,286046999.7,N
1595073155.5,286047002.2,N
1595073175.3,286047001.6,N
1595073195.1,286047001.8,N
1595073215.9,286047002.7,N
1595073235.7,286046999.8,N
1595073255.5,286047000.2,N
1595073275.4,286046999.7,N
1595073295.2,286047000.6,N
1595073315.1,286046999.7,N
1595073316.0,286046999.7,N
1595073335.8,286047002.5,N
1595073355.6,286047002.3,N
1595073375.5,286047002.7,N
1595073395.3,286046999.9,N
1595073415.2,286047000.4,N
1595073435.9,286046999.8,N
1595073455.7,286047000.2,N
1595073475.6,286047000.9,N
1595073495.4,286046999.9,N
1595073515.2,286046999.7,N
1595073535.1,286047000.2,N
1595073536.0,286047000.2,N
1595073555.8,286047000.2,N
1595073575.7,286047002.8,N
1595073595.5,286046999.7,N
